Regional Weather Roundup
Issued by NWS Cleveland, OH

Home | Current Version | Previous Version | Graphics & Text | Print | Product List | Glossary On
Versions: 1 2 3 4 5 6 7 8 9 10 11 12 13 14 15 16 17 18 19 20 21 22 23 24 25 26 27 28 29 30 31 32 33 34 35 36 37 38 39 40 41 42 43 44 45 46 47 48 49 50
000
ASUS41 KCLE 221110
RWRCLE
OHIO REGIONAL WEATHER ROUNDUP
NATIONAL WEATHER SERVICE CLEVELAND, OH
600 AM EST WED FEB 22 2017

NOTE: "FAIR" INDICATES FEW OR NO CLOUDS BELOW 12,000 FEET WITH NO
SIGNIFICANT WEATHER AND/OR OBSTRUCTIONS TO VISIBILITY.

OHZ001>008-015>018-024>027-034-035-043-044-221200-
   NORTHWEST OHIO

CITY           SKY/WX    TMP DP  RH WIND       PRES   REMARKS
DEFIANCE       CLOUDY    51  49  92 SW3       29.90R
FINDLAY        CLOUDY    54  50  86 SW8       29.89R FOG
TOLEDO EXPRESS CLOUDY    54  52  93 SW8       29.89R
TOLEDO EXEC    CLOUDY    53  52  96 SW8       29.90R FOG
LIMA           PTCLDY    53  53 100 SW7       29.91R FOG
$$

OHZ009>014-019>023-028>033-038-089-221200-
   NORTHEAST OHIO

CITY           SKY/WX    TMP DP  RH WIND       PRES   REMARKS
CLE-HOPKINS    CLOUDY    57  49  74 S6        29.93R
CLE-LAKEFRONT  CLOUDY    58  51  78 SW10      29.89R
CUY CO. ARPT   NOT AVBL
LORAIN-ELYRIA  CLOUDY    53  48  83 SW6       29.91R
ASHTABULA      CLOUDY    50  46  86 S7        29.91F
AKRON-CANTON   CLOUDY    52  49  89 S7        29.93R
WOOSTER        LGT RAIN  52  49  89 S7        29.93S
MANSFIELD      CLOUDY    55  53  93 S9        29.92R
YOUNGSTOWN     CLOUDY    54  47  77 S7        29.94R
$$

OHZ042-051>053-060>062-070>072-077>081-221200-
  SOUTHWEST OHIO

CITY           SKY/WX    TMP DP  RH WIND       PRES   REMARKS
CINC-COVINGTON CLOUDY    56  55  97 S5        29.92R
CINC-LUNKEN    FOG       54  54 100 CALM      29.93S VSB 1
HAMILTON       CLOUDY    56  56 100 CALM      29.93S FOG
DAYTON         CLOUDY    55  54  96 S10       29.93R FOG
WRIGHT-PAT AFB DRIZZLE   55  54  99 S6        29.92S FOG
DAYTON GENERAL CLOUDY    55  54  96 S9        29.92S FOG
WILMINGTON     CLOUDY    54  54 100 S5        29.93S FOG
$$

OHZ036-037-039>041-045>050-054>059-063>069-073>076-082>088-221200-
  CENTRAL AND SOUTHEAST OHIO

CITY           SKY/WX    TMP DP  RH WIND       PRES   REMARKS
COLUMBUS       CLOUDY    55  53  93 S3        29.94R
OSU AIRPORT    CLOUDY    54  53  97 S7        29.93R
BOLTON FIELD   CLOUDY    53  52  97 S5        29.95R FOG
RICKENBACK AFB DRIZZLE   52  52 100 S5        29.94S
NEWARK         CLOUDY    52  50  93 S3        29.93S
MARION         CLOUDY    53  50  89 S8        29.92S FOG
LANCASTER      CLOUDY    53  51  93 CALM      29.95R FOG
ZANESVILLE     CLOUDY    53  50  89 CALM      29.95R
NEW PHILLY     NOT AVBL
$$




USA.gov is the U.S. government's official web portal to all federal, state and local government web resources and services.